DW1415 Weather Reports


Display with metric or nautical units.
time (UTC)temp
F
wind
direction
speed
MPH
gust
MPH
rain 1hr
in
rain 24hr
in
rain mn
in
humidity
%
barometer
mb
20260504015502 56 10 1.0 3.0 0.00 0.00 0.00 39 1010.5
20260504015003 56 355 1.0 2.0 0.00 0.00 0.00 39 1010.4
20260504013502 56 42 0.0 0.0 0.00 0.00 0.00 39 1010.2
20260504013004 56 42 0.0 0.0 0.00 0.00 0.00 39 1010.2
20260504012502 56 42 0.0 0.0 0.00 0.00 0.00 39 1010.2
20260504011503 56 42 0.0 1.0 0.00 0.00 0.00 38 1010.1
20260504011004 56 42 0.0 0.0 0.00 0.00 0.00 38 1010.1
20260504010003 57 42 0.0 0.0 0.00 0.00 0.00 38 1009.9
20260504005002 57 42 0.0 0.0 0.00 0.00 0.00 36 1009.8
20260504003504 58 42 0.0 0.0 0.00 0.00 0.00 36 1009.7
20260504003003 58 42 0.0 0.0 0.00 0.00 0.00 35 1009.6
20260504002003 59 42 0.0 0.0 0.00 0.00 0.00 34 1009.4
20260504001003 59 58 0.0 2.0 0.00 0.00 0.00 34 1009.2
20260504000502 59 60 0.0 1.0 0.00 0.00 0.00 34 1009.1
20260504000002 60 60 0.0 0.0 0.00 0.00 0.00 33 1009.1
20260503235003 60 60 1.0 3.0 0.00 0.00 0.00 32 1009.0
20260503234004 60 327 1.0 3.0 0.00 0.00 0.00 31 1008.8
20260503233503 60 264 1.0 3.0 0.00 0.00 0.00 31 1008.8
20260503233003 60 50 2.0 3.0 0.00 0.00 0.00 31 1008.6
20260503232504 60 193 1.0 3.0 0.00 0.00 0.00 32 1008.6
20260503231003 61 345 1.0 3.0 0.00 0.00 0.00 30 1008.6
20260503230502 61 23 1.0 2.0 0.00 0.00 0.00 30 1008.6
20260503224503 61 339 2.0 5.0 0.00 0.00 0.00 29 1008.5
20260503224003 61 43 2.0 7.0 0.00 0.00 0.00 29 1008.4
20260503220503 61 238 2.0 7.0 0.00 0.00 0.00 28 1008.4
20260503220002 61 210 3.0 8.0 0.00 0.00 0.00 28 1008.4
20260503215503 61 88 2.0 6.0 0.00 0.00 0.00 29 1008.5
20260503214503 61 241 2.0 6.0 0.00 0.00 0.00 28 1008.4
20260503214002 61 47 3.0 9.0 0.00 0.00 0.00 29 1008.5
20260503213502 61 206 3.0 7.0 0.00 0.00 0.00 28 1008.5
20260503213003 61 188 2.0 6.0 0.00 0.00 0.00 28 1008.5
20260503212503 61 68 5.0 9.0 0.00 0.00 0.00 29 1008.4
20260503210003 60 55 3.0 8.0 0.00 0.00 0.00 30 1008.3
20260503205504 60 72 3.0 7.0 0.00 0.00 0.00 30 1008.3
20260503205002 60 327 3.0 7.0 0.00 0.00 0.00 29 1008.3
20260503204003 60 329 3.0 8.0 0.00 0.00 0.00 30 1008.4
20260503202503 60 357 3.0 9.0 0.00 0.00 0.00 30 1008.5
20260503200503 60 344 3.0 9.0 0.00 0.00 0.00 31 1008.6
20260503200003 59 177 2.0 6.0 0.00 0.00 0.00 32 1008.6
20260503195504 59 284 3.0 8.0 0.00 0.00 0.00 30 1008.7
20260503194503 60 82 3.0 8.0 0.00 0.00 0.00 31 1008.8
20260503193503 59 21 4.0 10.0 0.00 0.00 0.00 31 1008.9
20260503193003 60 72 3.0 9.0 0.00 0.00 0.00 32 1008.9
20260503191003 58 62 4.0 9.0 0.00 0.00 0.00 33 1009.0
20260503185502 58 113 3.0 8.0 0.00 0.00 0.00 35 1009.0
20260503185002 59 61 3.0 5.0 0.00 0.00 0.00 34 1009.2
20260503184502 58 1 2.0 3.0 0.00 0.00 0.00 35 1009.3
20260503183503 57 318 2.0 5.0 0.00 0.00 0.00 36 1009.3
20260503182505 57 310 3.0 9.0 0.00 0.00 0.00 35 1009.4
20260503180003 56 210 2.0 8.0 0.00 0.00 0.00 40 1009.6
20260503175503 56 353 3.0 12.0 0.00 0.00 0.00 40 1009.8
20260503175004 55 350 2.0 6.0 0.00 0.00 0.00 39 1009.6
20260503174003 55 204 2.0 6.0 0.00 0.00 0.00 41 1009.7
20260503173003 55 61 3.0 6.0 0.00 0.00 0.00 40 1009.7
20260503172504 55 44 3.0 9.0 0.00 0.00 0.00 40 1009.8
20260503172003 54 102 3.0 8.0 0.00 0.00 0.00 41 1010.0
20260503171503 54 258 3.0 6.0 0.00 0.00 0.00 41 1009.8
20260503171003 54 45 2.0 6.0 0.00 0.00 0.00 41 1009.8
20260503151003 52 300 3.0 7.0 0.00 0.00 0.00 37 1010.2
20260503150503 52 158 2.0 7.0 0.00 0.00 0.00 37 1010.2
20260503131004 48 206 2.0 5.0 0.00 0.00 0.00 54 1010.3
20260503110503 45 176 1.0 3.0 0.00 0.00 0.00 58 1009.7
20260503090503 47 279 1.0 6.0 0.00 0.01 0.00 54 1008.5
20260503081503 48 44 0.0 3.0 0.00 0.01 0.00 53 1008.5
20260503080502 48 177 1.0 3.0 0.00 0.01 0.00 52 1008.4
20260503072503 48 208 2.0 3.0 0.00 0.01 0.00 50 1008.4
20260503071503 49 5 1.0 3.0 0.00 0.01 0.00 50 1008.4
20260503055002 51 106 1.0 3.0 0.00 0.01 0.00 45 1008.6
20260503053503 51 191 1.0 3.0 0.00 0.01 0.00 44 1008.7
20260503053003 51 152 1.0 3.0 0.00 0.01 0.00 44 1008.7
20260503051504 52 194 2.0 6.0 0.00 0.01 0.00 43 1009.0
20260503045503 52 54 1.0 5.0 0.00 0.01 0.00 43 1009.2
20260503044003 52 14 1.0 3.0 0.00 0.01 0.00 43 1009.1
20260503043003 52 181 2.0 6.0 0.00 0.01 0.00 42 1009.0
20260503042503 52 191 3.0 7.0 0.00 0.01 0.00 42 1009.1
20260503042003 53 197 2.0 8.0 0.00 0.01 0.00 42 1009.2
20260503041004 53 242 2.0 8.0 0.00 0.01 0.00 42 1009.3
20260503040503 53 197 2.0 5.0 0.00 0.01 0.00 42 1009.3
20260503034505 53 213 4.0 7.0 0.00 0.01 0.01 40 1009.1
20260503033003 54 203 0.0 2.0 0.00 0.01 0.01 41 1009.1
20260503032003 54 86 1.0 7.0 0.00 0.01 0.01 41 1009.1
20260503031004 54 194 1.0 6.0 0.00 0.01 0.01 41 1009.0
20260503030003 54 72 1.0 3.0 0.00 0.01 0.01 41 1009.1
20260503025003 54 109 2.0 5.0 0.00 0.01 0.01 40 1009.1
20260503024504 54 319 1.0 2.0 0.00 0.01 0.01 40 1009.1
20260503023503 55 178 1.0 3.0 0.00 0.01 0.01 40 1009.0
20260503023003 55 130 1.0 3.0 0.00 0.01 0.01 41 1009.0
20260503022003 55 199 0.0 2.0 0.00 0.01 0.01 41 1009.0
20260503021503 55 190 1.0 3.0 0.00 0.01 0.01 40 1009.1